GFSGL_prec_sndepth_021.txt.gz
Snowfall_Accumulation
0.0 0.0 0.0 0.0 0.0 0.0 0.0 0.0 0.0 0.0 0.0 0.0 0.0 0.0 0.0 0.0 0.0 0.0 0.0 0.0 0.1 0.1 0.0 0.0 0.0 0.0 0.0 0.0 0.0 0.0 0.0 0.1 0.9 0.1 0.0 0.0 0.0 0.0 0.0 0.0 0.0 0.0 0.0
0.0 0.0 0.0 0.0 0.0 0.0 0.0 0.0 0.0 0.0 0.0 0.0 0.0 0.0 0.0 0.0 0.0 0.0 0.0 0.2 0.2 0.0 0.0 0.0 0.0 0.1 0.3 0.0 0.0 0.0 0.0 0.0 0.3 0.4 0.0 0.0 0.0 0.0 0.0 0.0 0.0 0.0 0.0
0.0 0.0 0.0 0.0 0.0 0.0 0.0 0.0 0.0 0.0 0.0 0.0 0.0 0.0 0.0 0.0 0.0 0.0 0.0 0.0 0.0 0.0 0.0 0.0 0.0 0.2 0.3 0.4 0.0 0.0 0.1 0.0 0.1 0.5 0.3 0.0 0.0 0.0 0.0 0.0 0.0 0.0 0.0
0.0 0.0 0.0 0.0 0.0 0.0 0.0 0.0 0.0 0.0 0.0 0.0 0.0 0.0 0.0 0.0 0.0 0.0 0.0 0.0 0.0 0.0 0.0 0.0 0.0 0.0 0.3 0.3 0.3 0.3 0.3 0.8 0.5 0.4 0.3 0.0 0.0 0.0 0.0 0.0 0.1 0.0 0.0
0.0 0.0 0.0 0.0 0.0 0.1 0.3 0.4 0.4 0.3 0.0 0.0 0.0 0.1 0.0 0.0 0.0 0.0 0.0 0.4 0.3 0.0 0.0 0.0 0.0 0.0 nan nan 0.7 0.6 0.6 1.2 1.8 2.1 0.5 0.2 0.1 0.0 0.0 0.0 0.3 0.2 0.2
0.0 0.0 0.0 0.6 1.0 1.2 1.0 0.7 0.5 0.4 0.4 0.4 0.4 0.5 0.4 0.0 nan nan 0.0 0.4 0.5 0.0 0.0 0.0 0.0 0.0 0.0 nan nan nan nan 2.3 9.4 7.5 0.6 0.5 0.1 0.0 0.0 0.1 0.2 0.3 0.9
1.5 2.3 2.0 1.6 1.7 1.2 0.9 0.8 0.6 0.6 0.5 0.5 0.5 0.4 0.4 0.4 nan nan nan 0.6 0.6 0.0 0.0 0.0 0.0 0.0 0.0 0.0 nan nan nan nan nan 0.2 1.0 0.3 0.1 0.0 0.0 0.1 0.2 0.5 0.5
1.9 3.0 2.2 1.3 2.6 1.4 1.2 1.2 0.7 0.6 0.8 0.6 0.7 0.6 0.4 0.3 nan nan nan 0.4 0.4 0.0 0.0 0.0 0.0 0.0 0.0 0.1 0.3 1.4 0.9 0.6 0.3 0.1 0.1 0.1 0.1 0.0 0.1 0.3 1.1 1.6 1.3
0.7 1.2 1.2 2.0 2.9 1.5 3.5 1.6 1.2 2.0 1.4 2.5 2.4 3.8 2.9 2.5 nan nan 0.8 1.4 1.1 0.8 0.1 0.1 0.1 0.1 nan nan 1.7 3.8 2.4 1.2 nan nan nan nan nan nan nan 5.8 14.5 15.9 8.7
0.7 0.7 0.9 1.9 4.3 3.4 1.9 2.9 3.3 3.1 2.9 3.6 3.3 2.9 0.8 4.3 nan nan nan 5.1 5.9 3.3 1.6 0.1 0.1 0.1 nan nan 1.9 3.5 5.0 1.9 1.3 3.6 1.2 0.7 nan nan nan 0.4 5.2 15.3 7.7
1.4 1.4 1.7 2.0 4.5 2.8 3.3 2.7 3.9 4.4 2.3 4.1 3.7 2.9 3.3 1.7 1.9 nan nan 2.9 5.1 6.5 5.4 3.5 1.8 nan nan nan nan 3.3 3.7 2.6 6.0 5.0 4.0 3.8 2.2 1.6 1.8 1.2 0.5 2.3 5.9
2.2 2.5 3.1 5.0 4.6 4.7 8.3 5.1 7.0 6.1 6.0 5.4 5.8 4.8 4.0 1.7 nan nan nan nan nan 10.3 5.5 2.3 2.0 nan nan nan 1.6 nan nan 1.5 10.1 11.5 9.2 6.7 3.9 3.3 1.9 1.5 0.4 0.8 0.9
5.2 7.3 7.2 6.4 6.5 6.5 9.5 6.4 8.7 7.1 8.4 4.8 6.3 5.7 3.7 3.1 3.1 nan nan nan nan 6.0 4.0 2.5 nan nan nan nan nan nan 0.5 6.2 9.4 11.3 7.6 3.7 1.9 1.5 0.8 1.7 0.7 1.1 0.8
10.0 5.4 4.3 5.5 4.1 5.5 7.6 8.8 12.3 9.7 8.0 8.9 10.0 9.0 5.5 5.2 3.8 3.9 8.1 6.1 2.4 6.7 nan 4.9 nan 3.3 nan nan 2.8 3.0 4.4 4.7 5.4 6.3 4.6 2.0 2.1 3.3 4.2 3.3 4.9 4.1 7.4
7.1 4.0 5.6 7.8 8.6 5.1 4.5 7.8 6.6 4.5 9.4 15.4 18.5 13.3 14.5 14.1 10.5 5.5 11.6 14.0 13.8 12.2 8.3 14.2 11.8 7.2 6.4 5.2 6.4 5.9 5.0 5.8 6.5 6.3 6.4 6.1 5.8 5.4 5.4 4.6 5.1 6.9 8.2
4.2 6.0 5.8 5.8 5.0 4.4 4.4 4.3 nan nan nan nan nan 11.8 15.3 nan nan nan nan nan nan nan 21.3 24.9 12.6 9.6 6.8 6.6 8.0 7.5 6.5 5.3 5.6 6.8 7.7 7.2 7.0 6.6 7.2 7.7 7.1 8.1 8.9
7.2 4.8 6.2 4.9 5.1 5.7 5.8 6.9 8.0 4.5 nan nan nan nan nan nan nan nan nan nan nan nan 33.1 18.2 14.3 9.8 9.2 6.9 8.7 7.9 7.8 6.5 4.4 7.6 7.4 8.1 9.2 9.6 9.3 8.8 8.2 7.1 10.5
6.8 1.9 7.4 7.2 6.9 7.2 7.7 8.0 8.2 9.9 11.2 8.9 nan nan nan nan nan nan nan nan 28.3 nan 25.9 26.1 21.9 17.1 12.7 11.2 9.3 9.1 9.4 9.4 8.9 10.0 9.9 14.1 15.2 15.8 14.5 14.3 10.6 12.3 11.9
7.4 6.3 6.9 7.1 6.7 7.0 7.9 7.0 7.8 7.8 8.2 10.6 10.0 10.0 5.3 nan nan nan nan 18.6 26.5 23.6 23.5 24.2 20.3 19.0 15.3 16.1 15.2 17.3 15.0 15.8 15.4 20.3 20.5 21.8 19.3 19.2 18.6 13.1 9.8 6.1 6.9
7.9 3.2 6.1 10.6 8.9 7.9 5.8 7.8 7.2 7.5 8.5 10.0 10.6 9.0 15.9 15.8 23.5 24.6 20.1 27.7 27.5 24.9 21.2 23.7 24.9 27.4 27.8 25.5 24.7 22.9 23.3 24.4 22.0 23.2 23.3 21.8 19.7 20.1 12.6 17.3 14.5 11.6 13.3
13.9 11.8 2.4 10.3 12.8 13.0 13.1 10.5 8.2 11.4 10.3 12.4 9.5 9.1 nan 16.0 17.6 19.4 23.0 21.4 25.2 27.6 22.5 25.0 26.4 33.8 35.0 38.2 31.5 30.1 28.3 17.8 22.5 24.6 26.3 26.3 24.7 29.2 17.3 10.3 15.2 16.1 14.9
15.8 16.3 16.3 17.2 11.8 12.3 14.2 9.7 10.7 11.0 10.3 9.0 6.9 7.6 nan 9.8 12.8 13.4 15.8 21.3 26.5 26.4 30.1 35.7 35.3 38.4 33.7 31.1 28.2 26.3 22.1 26.4 28.6 26.7 21.8 23.2 27.0 22.6 21.0 13.7 14.0 11.6 15.6
13.2 11.6 12.4 12.2 11.8 6.0 13.3 15.5 13.5 12.8 11.6 12.9 11.1 11.2 13.5 17.4 14.8 14.1 22.2 25.5 20.5 19.7 22.4 23.5 22.0 22.1 20.6 24.1 21.2 20.1 21.7 25.4 26.5 34.3 23.8 25.2 24.3 27.4 23.3 19.7 16.6 17.7 16.2
11.8 12.0 11.5 15.5 13.5 11.0 13.4 14.6 12.6 5.8 13.1 14.4 24.7 18.8 10.5 14.5 22.4 16.5 17.9 21.6 17.4 30.2 21.2 22.8 18.5 18.0 20.1 31.0 39.4 38.7 41.6 43.5 41.7 38.6 34.3 23.6 24.0 19.4 19.6 21.3 16.1 13.8 11.9
14.8 12.3 12.5 11.5 18.6 14.6 13.5 16.6 11.3 16.4 20.0 15.1 18.9 13.5 14.6 13.7 15.3 22.8 21.0 16.8 19.1 17.3 14.8 14.6 15.4 16.2 16.5 17.5 24.9 32.1 32.1 4.2 20.9 4.6 30.1 21.0 25.9 26.9 25.2 20.0 18.1 14.7 11.7
11.7 12.3 12.9 13.6 13.2 14.8 15.6 15.4 16.1 12.4 16.4 17.9 16.8 17.1 14.6 14.6 14.8 18.0 16.7 16.9 13.4 14.0 14.4 15.9 15.9 13.7 12.6 14.8 15.9 6.7 4.0 3.5 24.8 3.9 24.0 19.7 23.7 22.9 22.4 22.3 20.2 17.8 13.7

GFSGL_prec_sndepth_024.txt.gz
Snowfall_Accumulation
0.0 0.0 0.0 0.0 0.0 0.0 0.0 0.0 0.0 0.0 0.0 0.0 0.0 0.0 0.0 0.0 0.0 0.0 0.0 0.0 0.1 0.1 0.0 0.0 0.0 0.0 0.0 0.0 0.0 0.0 0.0 0.1 0.8 0.0 0.0 0.0 0.0 0.0 0.0 0.0 0.0 0.0 0.0
0.0 0.0 0.0 0.0 0.0 0.0 0.0 0.0 0.0 0.0 0.0 0.0 0.0 0.0 0.0 0.0 0.0 0.0 0.0 0.2 0.2 0.0 0.0 0.0 0.0 0.1 0.3 0.0 0.0 0.0 0.0 0.0 0.3 0.3 0.0 0.0 0.0 0.0 0.0 0.0 0.0 0.0 0.0
0.0 0.0 0.0 0.0 0.0 0.0 0.0 0.0 0.0 0.0 0.0 0.0 0.0 0.0 0.0 0.0 0.0 0.0 0.0 0.0 0.0 0.0 0.0 0.0 0.0 0.2 0.3 0.4 0.0 0.0 0.1 0.0 0.1 0.4 0.3 0.0 0.0 0.0 0.0 0.0 0.0 0.0 0.0
0.0 0.0 0.0 0.0 0.0 0.0 0.0 0.0 0.0 0.0 0.0 0.0 0.0 0.0 0.0 0.0 0.0 0.0 0.0 0.0 0.0 0.0 0.0 0.0 0.0 0.0 0.2 0.2 0.2 0.2 0.3 0.7 0.5 0.4 0.3 0.0 0.0 0.0 0.0 0.0 0.1 0.0 0.0
0.0 0.0 0.0 0.0 0.0 0.1 0.3 0.4 0.4 0.3 0.0 0.0 0.0 0.1 0.0 0.0 0.0 0.0 0.0 0.4 0.3 0.0 0.0 0.0 0.0 0.0 nan nan 0.6 0.5 0.5 1.0 1.6 1.9 0.4 0.2 0.1 0.0 0.0 0.0 0.3 0.2 0.2
0.0 0.0 0.0 0.6 1.0 1.2 0.9 0.7 0.5 0.4 0.4 0.4 0.4 0.4 0.4 0.0 nan nan 0.0 0.4 0.4 0.0 0.0 0.0 0.0 0.0 0.0 nan nan nan nan 2.1 9.3 7.2 0.5 0.4 0.1 0.0 0.0 0.1 0.2 0.3 0.9
1.5 2.3 2.0 1.6 1.7 1.2 0.9 0.8 0.6 0.6 0.5 0.5 0.4 0.4 0.4 0.3 nan nan nan 0.6 0.5 0.0 0.0 0.0 0.0 0.0 0.0 0.0 nan nan nan nan nan 0.2 0.9 0.2 0.1 0.0 0.0 0.1 0.2 0.5 0.5
1.9 3.0 2.2 1.3 2.6 1.4 1.1 1.1 0.7 0.6 0.7 0.6 0.6 0.6 0.4 0.3 nan nan nan 0.3 0.4 0.0 0.0 0.0 0.0 0.0 0.0 0.1 0.2 1.4 0.9 0.6 0.3 0.1 0.1 0.1 0.1 0.0 0.1 0.3 1.0 1.5 1.2
0.7 1.2 1.2 2.0 2.9 1.5 3.5 1.6 1.2 2.0 1.4 2.5 2.3 3.8 2.8 2.5 nan nan 0.7 1.4 1.0 0.8 0.1 0.1 0.1 0.1 nan nan 1.7 3.8 2.4 1.2 nan nan nan nan nan nan nan 5.3 14.3 15.8 8.6
0.7 0.7 0.9 1.9 4.3 3.4 1.9 2.9 3.3 3.1 2.8 3.5 3.3 2.8 0.8 4.3 nan nan nan 5.0 5.9 3.3 1.5 0.1 0.1 0.1 nan nan 1.8 3.4 5.0 1.9 1.2 3.6 1.2 0.6 nan nan nan 0.4 5.1 15.2 7.6
1.4 1.4 1.7 2.0 4.5 2.8 3.3 2.7 3.9 4.3 2.3 4.1 3.7 2.9 3.3 1.7 1.9 nan nan 2.9 5.2 6.5 5.4 3.5 1.8 nan nan nan nan 3.5 3.8 2.6 5.9 4.9 4.0 3.7 2.1 1.5 1.7 1.1 0.6 2.2 5.8
2.2 2.5 3.1 5.0 4.6 4.6 8.3 5.1 7.0 6.1 6.0 5.4 5.8 4.8 4.0 1.6 nan nan nan nan nan 10.2 5.5 2.2 1.9 nan nan nan 1.6 nan nan 1.5 10.2 11.6 9.3 6.7 3.9 3.3 1.7 1.4 0.4 0.7 0.8
5.2 7.3 7.2 6.4 6.4 6.5 9.5 6.4 8.7 7.1 8.4 4.8 6.3 5.7 3.7 3.1 3.1 nan nan nan nan 6.0 3.9 2.4 nan nan nan nan nan nan 0.6 6.6 9.7 11.7 7.9 3.8 1.9 1.4 0.7 1.7 0.9 1.3 0.8
10.0 5.4 4.3 5.5 4.1 5.5 7.5 8.8 12.3 9.7 8.0 8.9 10.0 9.0 5.5 5.3 3.9 4.0 8.1 6.2 2.6 6.9 nan 4.8 nan 3.3 nan nan 2.8 3.0 4.4 4.7 5.6 6.5 4.8 2.0 2.1 3.3 4.2 3.3 5.0 4.5 8.0
7.1 4.0 5.6 7.8 8.6 5.1 4.5 7.7 6.6 4.5 9.5 16.1 19.1 13.7 15.0 14.2 10.5 5.4 12.0 14.2 14.0 12.6 8.5 15.5 12.9 7.5 6.6 5.4 6.6 6.1 5.4 5.9 6.6 6.5 6.6 6.3 6.0 5.5 5.5 4.7 5.2 7.1 8.5
4.2 6.0 5.8 5.8 5.0 4.4 4.4 4.3 nan nan nan nan nan 11.8 15.3 nan nan nan nan nan nan nan 21.6 25.3 12.9 9.7 6.8 6.6 8.0 7.5 6.5 5.3 5.8 7.2 8.1 7.4 7.3 7.0 7.2 7.8 7.2 8.3 8.9
7.2 4.8 6.2 4.8 5.1 5.7 5.8 6.9 8.1 4.5 nan nan nan nan nan nan nan nan nan nan nan nan 33.5 18.3 14.3 9.8 9.2 6.9 8.6 7.8 7.8 6.5 4.4 7.7 7.6 8.1 9.3 9.8 9.4 9.0 8.3 7.2 10.7
6.8 1.9 7.4 7.2 6.9 7.2 7.7 8.0 8.2 9.9 11.3 8.9 nan nan nan nan nan nan nan nan 28.1 nan 25.8 26.2 22.0 17.2 12.7 11.2 9.3 9.1 9.3 9.4 8.9 10.0 10.0 14.2 15.5 15.7 14.6 14.6 10.8 12.3 11.9
7.4 6.3 6.9 7.1 6.7 7.0 7.9 7.0 7.8 7.8 8.3 10.6 10.0 10.0 5.3 nan nan nan nan 18.6 26.5 23.6 23.5 24.4 20.5 19.1 15.3 16.1 15.3 17.4 15.0 15.7 15.3 20.2 20.6 21.9 19.4 19.2 18.9 13.2 9.8 6.1 7.0
7.9 3.2 6.1 10.6 8.9 7.9 5.8 7.8 7.2 7.5 8.5 10.0 10.5 9.1 16.0 16.0 23.4 24.5 20.0 27.6 27.4 24.9 21.4 24.1 25.1 27.5 28.0 26.0 25.1 23.1 23.3 24.2 21.9 23.0 23.2 21.8 19.8 20.1 12.9 17.5 14.7 12.0 13.7
13.8 11.8 2.4 10.3 12.8 13.0 13.1 10.5 8.2 11.4 10.3 12.4 9.5 9.0 nan 16.0 17.6 19.4 23.0 21.4 25.3 27.6 22.5 25.0 26.5 33.9 35.1 38.1 31.6 30.2 28.5 18.2 22.6 24.8 26.5 26.4 24.8 29.5 17.7 10.8 15.4 16.3 15.4
15.8 16.3 16.2 17.2 11.8 12.3 14.2 9.7 10.7 11.0 10.3 9.0 6.9 7.5 nan 9.8 12.8 13.4 15.8 21.3 26.5 26.5 30.3 35.8 35.4 38.5 33.9 31.2 28.4 26.5 22.3 26.6 28.7 26.9 22.0 23.5 27.3 23.1 21.4 14.1 14.5 12.3 16.1
13.1 11.6 12.4 12.2 11.8 6.0 13.2 15.5 13.4 12.8 11.6 12.9 11.1 11.1 13.5 17.4 14.8 14.2 22.2 25.5 20.5 19.7 22.5 23.6 22.1 22.2 20.6 24.2 21.3 20.3 21.8 25.5 26.7 34.4 24.1 25.6 24.8 27.9 23.7 20.3 17.0 18.3 16.8
11.7 12.0 11.5 15.5 13.5 11.0 13.4 14.6 12.6 5.8 13.1 14.4 24.6 18.8 10.5 14.4 22.4 16.5 17.9 21.6 17.4 30.2 21.2 22.8 18.7 18.2 20.2 31.0 39.2 38.5 41.3 43.2 41.5 38.3 34.1 23.6 24.2 19.6 19.9 21.7 16.6 14.4 12.5
14.7 12.3 12.4 11.4 18.5 14.6 13.5 16.6 11.2 16.3 19.9 15.1 18.9 13.5 14.5 13.7 15.2 22.7 21.0 16.8 19.0 17.3 14.8 14.7 15.5 16.4 16.6 17.5 24.9 32.0 31.9 4.3 20.9 4.7 30.1 21.2 26.2 27.2 25.6 20.4 18.6 15.3 12.4
11.7 12.3 12.9 13.6 13.2 14.8 15.6 15.4 16.1 12.4 16.3 17.9 16.8 17.1 14.6 14.6 14.8 17.9 16.7 16.8 13.4 14.0 14.4 15.9 15.9 13.7 12.7 14.9 16.1 6.7 4.0 3.5 24.8 4.0 24.1 20.0 23.9 23.2 22.8 22.8 20.8 18.4 14.3

GFSGL_prec_sndepth_030.txt.gz
Snowfall_Accumulation
0.0 0.0 0.0 0.0 0.0 0.0 0.0 0.0 0.0 0.0 0.0 0.0 0.0 0.0 0.0 0.0 0.0 0.0 0.0 0.0 0.1 0.1 0.0 0.0 0.0 0.0 0.0 0.0 0.0 0.0 0.0 0.1 0.7 0.0 0.0 0.0 0.0 0.0 0.0 0.0 0.0 0.0 0.0
0.0 0.0 0.0 0.0 0.0 0.0 0.0 0.0 0.0 0.0 0.0 0.0 0.0 0.0 0.0 0.0 0.0 0.0 0.0 0.2 0.2 0.0 0.0 0.0 0.0 0.1 0.3 0.0 0.0 0.0 0.0 0.0 0.3 0.3 0.0 0.0 0.0 0.0 0.0 0.0 0.0 0.0 0.0
0.0 0.0 0.0 0.0 0.0 0.0 0.0 0.0 0.0 0.0 0.0 0.0 0.0 0.0 0.0 0.0 0.0 0.0 0.0 0.0 0.0 0.0 0.0 0.0 0.0 0.2 0.3 0.4 0.0 0.0 0.1 0.0 0.1 0.4 0.2 0.0 0.0 0.0 0.0 0.0 0.0 0.0 0.0
0.0 0.0 0.0 0.0 0.0 0.0 0.0 0.0 0.0 0.0 0.0 0.0 0.0 0.0 0.0 0.0 0.0 0.0 0.0 0.0 0.0 0.0 0.0 0.0 0.0 0.0 0.2 0.2 0.2 0.2 0.2 0.7 0.5 0.4 0.3 0.0 0.0 0.0 0.0 0.0 0.1 0.0 0.0
0.0 0.0 0.0 0.0 0.0 0.1 0.3 0.4 0.4 0.3 0.0 0.0 0.0 0.1 0.0 0.0 0.0 0.0 0.0 0.3 0.2 0.0 0.0 0.0 0.0 0.0 nan nan 0.6 0.5 0.5 1.0 1.5 1.9 0.4 0.2 0.1 0.0 0.0 0.0 0.2 0.2 0.1
0.0 0.0 0.0 0.6 1.0 1.2 0.9 0.7 0.4 0.4 0.4 0.4 0.4 0.4 0.4 0.0 nan nan 0.0 0.3 0.4 0.0 0.0 0.0 0.0 0.0 0.0 nan nan nan nan 2.0 9.2 7.1 0.6 0.5 0.1 0.0 0.0 0.1 0.2 0.3 0.9
1.4 2.3 2.0 1.6 1.7 1.2 0.9 0.8 0.6 0.5 0.5 0.5 0.4 0.4 0.4 0.3 nan nan nan 0.5 0.5 0.0 0.0 0.0 0.0 0.0 0.0 0.0 nan nan nan nan nan 0.2 0.9 0.2 0.1 0.0 0.0 0.2 0.2 0.4 0.5
1.9 3.0 2.2 1.3 2.5 1.3 1.1 1.1 0.7 0.5 0.7 0.6 0.6 0.5 0.4 0.3 nan nan nan 0.3 0.3 0.0 0.0 0.0 0.0 0.0 0.0 0.1 0.2 1.3 0.8 0.6 0.2 0.1 0.1 0.1 0.1 0.0 0.1 0.3 1.0 1.5 1.1
0.7 1.2 1.2 2.0 2.9 1.5 3.5 1.6 1.1 1.9 1.3 2.4 2.3 3.8 2.8 2.4 nan nan 0.7 1.3 1.0 0.8 0.1 0.1 0.1 0.1 nan nan 1.6 4.0 2.4 1.2 nan nan nan nan nan nan nan 4.7 14.7 16.0 8.6
0.7 0.7 0.9 1.9 4.3 3.4 1.9 2.9 3.2 3.1 2.7 3.5 3.2 2.8 0.8 4.3 nan nan nan 5.0 5.9 3.2 1.5 0.1 0.1 0.1 nan nan 1.8 3.6 5.2 1.8 1.2 3.5 1.1 0.6 nan nan nan 0.3 4.7 15.4 7.7
1.4 1.4 1.7 1.9 4.5 2.8 3.3 2.7 3.9 4.3 2.2 4.0 3.7 2.8 3.3 1.7 1.8 nan nan 2.9 5.2 6.5 5.5 3.6 1.8 nan nan nan nan 3.5 3.9 2.5 6.0 4.9 4.0 3.8 2.1 1.4 1.6 1.0 0.5 2.0 6.0
2.2 2.5 3.1 5.0 4.6 4.6 8.3 5.1 6.9 6.1 6.0 5.4 5.8 4.8 4.0 1.6 nan nan nan nan nan 10.3 5.5 2.2 1.9 nan nan nan 2.1 nan nan 1.7 10.7 11.9 9.5 6.8 3.9 3.3 1.7 1.3 0.4 0.7 0.8
5.2 7.3 7.2 6.4 6.4 6.5 9.5 6.4 8.6 7.1 8.4 4.8 6.3 5.7 3.7 3.0 3.0 nan nan nan nan 5.9 3.9 2.4 nan nan nan nan nan nan 0.6 6.6 9.7 11.8 7.9 3.9 1.9 1.4 0.7 1.7 0.9 1.3 0.9
10.0 5.3 4.3 5.5 4.1 5.5 7.5 8.7 12.2 9.6 8.0 8.9 10.0 9.0 5.5 5.4 4.0 3.9 8.1 6.6 2.9 7.3 nan 5.2 nan 3.6 nan nan 2.7 2.9 4.3 4.7 5.5 6.5 4.7 2.0 2.1 3.3 4.3 3.4 5.2 4.6 8.4
7.1 4.0 5.6 7.8 8.6 5.0 4.5 7.7 6.6 4.5 9.5 16.6 19.6 14.2 15.4 14.3 10.4 5.5 12.3 14.5 14.5 13.7 8.8 16.1 13.0 7.5 6.6 5.5 6.6 6.0 5.4 5.9 6.6 6.5 6.6 6.4 6.1 5.7 5.9 4.8 5.2 7.3 9.3
4.2 5.9 5.8 5.8 5.0 4.4 4.4 4.2 nan nan nan nan nan 11.7 15.3 nan nan nan nan nan nan nan 21.6 25.3 12.9 9.6 6.8 6.6 8.0 7.6 6.5 5.4 5.9 7.4 8.5 7.7 7.6 7.2 7.3 7.9 7.9 8.9 9.5
7.2 4.7 6.2 4.8 5.1 5.7 5.8 6.9 8.1 4.4 nan nan nan nan nan nan nan nan nan nan nan nan 33.1 18.1 14.2 9.7 9.2 7.0 8.6 7.8 7.9 6.5 4.4 8.1 7.9 8.4 9.8 10.4 10.8 10.0 9.2 7.5 11.7
6.8 1.9 7.4 7.2 6.9 7.2 7.7 8.0 8.2 9.9 11.3 8.9 nan nan nan nan nan nan nan nan 27.8 nan 25.5 26.0 22.0 17.2 12.7 11.3 9.4 9.3 9.6 9.5 9.0 10.2 10.3 14.3 16.0 16.4 15.1 15.3 11.5 13.9 13.8
7.4 6.3 6.9 7.1 6.7 7.0 7.9 7.0 7.8 7.8 8.3 10.6 9.9 9.9 5.3 nan nan nan nan 18.5 26.4 23.4 23.4 24.2 20.3 19.1 15.5 16.3 15.5 17.7 15.4 16.1 15.5 20.4 20.5 21.9 19.3 19.5 19.9 13.6 10.1 6.2 7.3
7.9 3.2 6.1 10.6 8.9 7.9 5.8 7.8 7.2 7.5 8.5 10.0 10.5 9.0 16.0 16.0 23.2 24.3 19.9 27.3 27.2 24.7 21.3 23.9 25.0 27.3 27.9 25.9 25.2 23.3 23.6 24.2 21.8 22.8 23.0 21.6 19.7 20.2 13.5 18.1 15.2 12.6 14.2
13.8 11.8 2.4 10.3 12.8 13.0 13.1 10.5 8.2 11.4 10.3 12.4 9.5 9.0 nan 16.1 17.6 19.3 22.9 21.3 25.1 27.5 22.4 24.9 26.3 33.5 34.7 37.6 31.3 30.0 28.4 18.4 22.8 24.9 26.5 26.4 24.8 29.7 17.7 11.0 15.6 16.6 15.9
15.7 16.2 16.2 17.1 11.8 12.3 14.2 9.7 10.7 11.0 10.3 9.0 6.9 7.5 nan 9.8 12.7 13.4 15.7 21.2 26.3 26.3 30.1 35.6 35.1 38.3 33.9 31.6 28.7 26.5 22.4 26.6 28.5 26.7 22.1 23.6 27.3 23.1 21.5 14.5 14.9 12.8 16.7
13.1 11.6 12.4 12.2 11.8 6.0 13.2 15.4 13.4 12.7 11.5 12.8 11.1 11.1 13.4 17.3 14.7 14.1 22.1 25.3 20.4 19.6 22.3 23.5 22.0 22.1 20.6 24.2 21.5 20.7 22.4 25.8 26.9 34.3 24.2 25.4 24.7 27.7 23.7 20.4 17.3 18.7 17.3
11.7 12.0 11.5 15.5 13.5 11.0 13.4 14.5 12.5 5.8 13.0 14.3 24.5 18.7 10.4 14.4 22.3 16.4 17.8 21.5 17.3 29.9 21.1 22.7 18.6 18.2 20.2 30.7 38.7 38.1 40.9 42.9 41.1 38.0 34.0 23.7 24.2 19.6 20.0 21.8 16.9 14.8 12.9
14.7 12.2 12.4 11.4 18.5 14.5 13.5 16.5 11.2 16.3 19.9 15.0 18.8 13.5 14.5 13.7 15.2 22.5 20.9 16.7 18.9 17.2 14.7 14.6 15.5 16.3 16.6 17.5 24.8 31.7 31.6 4.3 20.7 4.7 29.9 21.2 26.2 27.2 25.7 20.6 18.9 15.8 12.9
11.7 12.3 12.9 13.6 13.2 14.7 15.6 15.3 16.1 12.4 16.3 17.8 16.8 17.0 14.5 14.6 14.8 17.9 16.6 16.7 13.3 13.9 14.3 15.8 15.9 13.7 12.6 14.9 16.1 6.8 4.0 3.5 24.6 4.0 24.0 20.0 23.8 23.2 22.8 22.9 21.0 18.7 14.8

GFSGL_prec_sndepth_033.txt.gz
Snowfall_Accumulation
0.0 0.0 0.0 0.0 0.0 0.0 0.0 0.0 0.0 0.0 0.0 0.0 0.0 0.0 0.0 0.0 0.0 0.0 0.0 0.0 0.1 0.1 0.0 0.0 0.0 0.0 0.0 0.0 0.0 0.0 0.0 0.1 0.7 0.0 0.0 0.0 0.0 0.0 0.0 0.0 0.0 0.0 0.0
0.0 0.0 0.0 0.0 0.0 0.0 0.0 0.0 0.0 0.0 0.0 0.0 0.0 0.0 0.0 0.0 0.0 0.0 0.0 0.2 0.2 0.0 0.0 0.0 0.0 0.1 0.2 0.0 0.0 0.0 0.0 0.0 0.3 0.3 0.0 0.0 0.0 0.0 0.0 0.0 0.0 0.0 0.0
0.0 0.0 0.0 0.0 0.0 0.0 0.0 0.0 0.0 0.0 0.0 0.0 0.0 0.0 0.0 0.0 0.0 0.0 0.0 0.0 0.0 0.0 0.0 0.0 0.0 0.2 0.3 0.4 0.0 0.0 0.1 0.0 0.1 0.4 0.3 0.0 0.0 0.0 0.0 0.0 0.0 0.0 0.0
0.0 0.0 0.0 0.0 0.0 0.0 0.0 0.0 0.0 0.0 0.0 0.0 0.0 0.0 0.0 0.0 0.0 0.0 0.0 0.0 0.0 0.0 0.0 0.0 0.0 0.0 0.2 0.2 0.2 0.2 0.3 0.7 0.5 0.4 0.3 0.0 0.0 0.0 0.0 0.0 0.1 0.0 0.0
0.0 0.0 0.0 0.0 0.0 0.1 0.3 0.4 0.3 0.3 0.0 0.0 0.0 0.1 0.0 0.0 0.0 0.0 0.0 0.3 0.2 0.0 0.0 0.0 0.0 0.0 nan nan 0.6 0.5 0.5 1.0 1.6 2.0 0.5 0.2 0.1 0.0 0.0 0.0 0.2 0.2 0.1
0.0 0.0 0.0 0.6 1.0 1.2 0.9 0.7 0.4 0.4 0.4 0.4 0.4 0.4 0.4 0.0 nan nan 0.0 0.3 0.4 0.0 0.0 0.0 0.0 0.0 0.0 nan nan nan nan 2.0 9.3 7.3 0.7 0.6 0.1 0.2 0.2 0.2 0.2 0.4 0.9
1.4 2.3 2.0 1.6 1.7 1.2 0.9 0.7 0.6 0.5 0.5 0.5 0.4 0.4 0.4 0.3 nan nan nan 0.5 0.5 0.0 0.0 0.0 0.0 0.0 0.0 0.0 nan nan nan nan nan 0.2 1.2 0.3 0.2 0.0 0.1 0.3 0.2 0.5 0.5
1.9 3.0 2.2 1.3 2.5 1.3 1.1 1.1 0.7 0.5 0.7 0.6 0.6 0.5 0.4 0.3 nan nan nan 0.3 0.3 0.0 0.0 0.0 0.0 0.0 0.0 0.1 0.2 1.3 0.8 0.6 0.2 0.1 0.2 0.1 0.1 0.0 0.1 0.3 1.0 1.5 1.1
0.7 1.1 1.2 2.0 2.9 1.5 3.5 1.6 1.1 1.9 1.3 2.4 2.3 3.8 2.8 2.4 nan nan 0.7 1.3 1.0 0.7 0.1 0.0 0.1 0.1 nan nan 1.7 4.2 2.5 1.2 nan nan nan nan nan nan nan 4.8 14.8 16.2 8.7
0.7 0.7 0.9 1.8 4.2 3.4 1.9 2.9 3.2 3.1 2.7 3.5 3.2 2.8 0.8 4.3 nan nan nan 5.0 5.9 3.2 1.5 0.1 0.1 0.1 nan nan 1.8 3.7 5.3 1.8 1.2 3.5 1.1 0.5 nan nan nan 0.2 4.6 15.4 7.7
1.4 1.4 1.7 1.9 4.5 2.8 3.3 2.7 3.9 4.3 2.2 4.0 3.7 2.8 3.2 1.7 1.8 nan nan 2.9 5.2 6.6 5.7 3.5 1.7 nan nan nan nan 3.5 3.9 2.5 6.3 5.2 4.5 4.1 2.3 1.5 1.6 1.0 0.5 2.0 6.0
2.2 2.5 3.1 5.0 4.6 4.6 8.3 5.1 6.9 6.1 6.0 5.4 5.8 4.8 3.9 1.6 nan nan nan nan nan 10.3 5.6 2.2 1.9 nan nan nan 2.3 nan nan 1.7 10.6 11.8 9.4 6.7 3.9 3.3 1.7 1.3 0.3 0.7 0.8
5.2 7.3 7.2 6.4 6.4 6.5 9.4 6.3 8.6 7.1 8.4 4.8 6.2 5.7 3.7 3.0 3.0 nan nan nan nan 5.9 3.9 2.4 nan nan nan nan nan nan 0.6 6.7 9.8 11.8 7.9 3.8 1.9 1.4 0.7 1.7 0.8 1.2 0.8
10.0 5.3 4.3 5.5 4.1 5.5 7.5 8.7 12.2 9.6 8.0 8.9 9.9 9.0 5.5 5.4 3.9 3.9 8.1 6.7 2.9 7.4 nan 5.5 nan 3.6 nan nan 2.7 2.9 4.3 4.6 5.5 6.5 4.7 2.0 2.1 3.3 4.3 3.4 5.2 4.6 8.4
7.1 4.0 5.6 7.8 8.6 5.0 4.5 7.7 6.6 4.5 9.5 16.6 19.5 14.3 15.5 14.3 10.4 5.4 12.3 14.6 14.5 14.0 8.8 16.0 13.0 7.5 6.6 5.5 6.5 6.0 5.3 5.9 6.6 6.5 6.6 6.4 6.1 5.7 5.8 4.7 5.2 7.3 9.3
4.2 5.9 5.7 5.8 5.0 4.4 4.4 4.2 nan nan nan nan nan 11.7 15.2 nan nan nan nan nan nan nan 21.5 25.2 12.9 9.6 6.8 6.5 8.0 7.6 6.5 5.4 5.9 7.3 8.5 7.8 7.7 7.2 7.3 7.9 7.8 8.9 9.7
7.1 4.7 6.2 4.8 5.1 5.7 5.8 6.9 8.1 4.4 nan nan nan nan nan nan nan nan nan nan nan nan 32.9 18.1 14.2 9.7 9.2 6.9 8.6 7.8 7.9 6.5 4.3 8.2 8.0 8.4 9.8 10.4 10.8 10.0 9.2 7.9 12.3
6.8 1.9 7.4 7.2 6.9 7.2 7.7 8.0 8.2 9.9 11.3 8.9 nan nan nan nan nan nan nan nan 27.7 nan 25.5 25.9 21.9 17.1 12.7 11.3 9.4 9.3 9.6 9.4 9.0 10.2 10.3 14.4 16.1 16.5 15.1 15.3 11.5 14.1 14.2
7.4 6.3 6.9 7.1 6.7 7.0 7.9 7.0 7.8 7.8 8.3 10.6 9.9 9.9 5.3 nan nan nan nan 18.5 26.3 23.4 23.3 24.1 20.3 19.1 15.4 16.3 15.5 17.6 15.4 16.1 15.5 20.4 20.6 21.9 19.4 19.7 19.9 13.6 10.2 6.2 7.3
7.9 3.2 6.1 10.6 8.9 7.9 5.8 7.8 7.2 7.5 8.5 10.0 10.5 9.0 16.0 16.0 23.2 24.2 19.9 27.2 27.1 24.6 21.2 23.8 24.9 27.2 27.8 25.8 25.1 23.2 23.5 24.1 21.7 22.8 22.9 21.6 19.6 20.2 13.8 18.2 15.3 12.8 14.3
13.8 11.7 2.4 10.3 12.8 13.0 13.1 10.5 8.2 11.4 10.3 12.4 9.5 9.0 nan 16.3 17.6 19.3 22.8 21.3 25.1 27.4 22.3 24.8 26.2 33.3 34.5 37.3 31.1 29.9 28.3 18.4 22.7 24.8 26.4 26.2 24.7 29.7 17.7 11.1 15.8 16.7 16.0
15.7 16.2 16.2 17.1 11.8 12.3 14.2 9.7 10.7 11.0 10.3 9.0 6.9 7.5 nan 9.8 12.7 13.4 15.7 21.1 26.2 26.2 30.0 35.4 34.9 38.0 33.7 31.4 28.6 26.4 22.3 26.4 28.4 26.6 22.1 23.5 27.1 23.1 21.5 14.5 14.9 12.9 16.8
13.1 11.5 12.4 12.2 11.7 6.0 13.2 15.4 13.4 12.7 11.5 12.8 11.1 11.1 13.4 17.2 14.7 14.1 22.0 25.3 20.3 19.6 22.3 23.4 22.0 22.0 20.5 24.1 21.4 20.7 22.6 25.9 27.0 34.3 24.4 25.4 24.6 27.6 23.7 20.4 17.4 18.8 17.3
11.7 12.0 11.5 15.4 13.5 11.0 13.3 14.5 12.5 5.8 13.0 14.3 24.4 18.7 10.4 14.4 22.2 16.4 17.8 21.4 17.3 29.7 21.0 22.6 18.5 18.2 20.1 30.6 38.4 37.8 40.6 42.6 41.1 37.9 34.0 23.8 24.2 19.6 20.0 21.8 16.9 14.9 13.1
14.7 12.2 12.4 11.4 18.4 14.5 13.4 16.5 11.2 16.2 19.8 15.0 18.8 13.4 14.5 13.6 15.2 22.5 20.8 16.7 18.9 17.1 14.7 14.6 15.4 16.3 16.6 17.5 24.7 31.6 31.4 4.3 20.8 4.7 29.7 21.2 26.1 27.0 25.6 20.6 19.0 15.9 13.0
11.7 12.4 12.9 13.6 13.2 14.8 15.6 15.4 16.1 12.4 16.3 17.8 16.7 17.0 14.5 14.5 14.7 17.8 16.6 16.7 13.3 13.9 14.3 15.8 15.8 13.7 12.6 14.9 16.0 6.7 4.0 3.5 25.2 4.0 23.9 19.9 23.7 23.1 22.7 22.8 20.9 18.7 14.8